Time,TemperatureF,DewpointF,PressureIn,WindDirection,WindDirectionDegrees,WindSpeedMPH,WindSpeedGustMPH,Humidity,HourlyPrecipIn,Conditions,Clouds,dailyrainin,SoftwareType,DateUTC
2013-01-01 00:03:00,70.0,58.0,30.20,SE,134,7.0,10.0,64,-99.99,,,-99.99,,2013-01-01 05:03:00,
2013-01-01 00:12:00,71.0,59.0,30.21,SE,139,7.0,10.0,65,-99.99,,,-99.99,,2013-01-01 05:12:00,
2013-01-01 00:22:00,71.0,59.0,30.21,SE,139,7.0,10.0,65,-99.99,,,-99.99,,2013-01-01 05:22:00,
2013-01-01 00:33:00,71.0,59.0,30.21,SE,139,7.0,10.0,65,-99.99,,,-99.99,,2013-01-01 05:33:00,
2013-01-01 00:42:00,70.0,58.0,30.20,SSE,161,7.0,12.0,64,-99.99,,,-99.99,,2013-01-01 05:42:00,
2013-01-01 00:53:00,70.0,57.0,30.20,SSE,165,7.0,13.0,62,-99.99,,,-99.99,,2013-01-01 05:53:00,
2013-01-01 01:02:00,70.0,57.0,30.20,SSE,165,7.0,13.0,62,-99.99,,,-99.99,,2013-01-01 06:02:00,
2013-01-01 01:12:00,70.0,56.0,30.19,SSE,167,7.0,12.0,62,-99.99,,,-99.99,,2013-01-01 06:12:00,
2013-01-01 01:22:00,70.0,56.0,30.19,SSE,167,7.0,12.0,62,-99.99,,,-99.99,,2013-01-01 06:22:00,
2013-01-01 01:32:00,69.0,57.0,30.19,SSE,167,4.0,6.0,64,-99.99,,,-99.99,,2013-01-01 06:32:00,
2013-01-01 01:42:00,69.0,57.0,30.19,SSE,167,4.0,6.0,64,-99.99,,,-99.99,,2013-01-01 06:42:00,
2013-01-01 01:52:00,68.0,56.0,30.19,SSE,161,3.0,6.0,64,-99.99,,,-99.99,,2013-01-01 06:52:00,
2013-01-01 02:02:00,68.0,56.0,30.19,SSE,161,3.0,6.0,64,-99.99,,,-99.99,,2013-01-01 07:02:00,
2013-01-01 02:12:00,69.0,57.0,30.19,SSE,161,6.0,9.0,66,-99.99,,,-99.99,,2013-01-01 07:12:00,
2013-01-01 02:22:00,69.0,57.0,30.19,SSE,161,6.0,9.0,66,-99.99,,,-99.99,,2013-01-01 07:22:00,
2013-01-01 02:32:00,70.0,57.0,30.19,SSE,159,9.0,16.0,62,-99.99,,,-99.99,,2013-01-01 07:32:00,
2013-01-01 02:42:00,69.0,55.0,30.19,SSE,160,8.0,16.0,60,-99.99,,,-99.99,,2013-01-01 07:42:00,
2013-01-01 02:53:00,69.0,55.0,30.19,SSE,160,5.0,10.0,61,-99.99,,,-99.99,,2013-01-01 07:53:00,
2013-01-01 03:02:00,69.0,55.0,30.19,SSE,160,5.0,10.0,61,-99.99,,,-99.99,,2013-01-01 08:02:00,
2013-01-01 03:12:00,68.0,55.0,30.18,SSE,165,5.0,9.0,62,-99.99,,,-99.99,,2013-01-01 08:12:00,
2013-01-01 03:22:00,68.0,55.0,30.18,SSE,165,5.0,9.0,62,-99.99,,,-99.99,,2013-01-01 08:22:00,
2013-01-01 03:32:00,68.0,55.0,30.18,SSE,165,5.0,9.0,62,-99.99,,,-99.99,,2013-01-01 08:32:00,
2013-01-01 03:42:00,67.0,55.0,30.18,South,173,3.0,4.0,65,-99.99,,,-99.99,,2013-01-01 08:42:00,
2013-01-01 03:53:00,65.0,55.0,30.18,South,183,1.0,3.0,68,-99.99,,,-99.99,,2013-01-01 08:53:00,
2013-01-01 04:02:00,65.0,55.0,30.18,South,183,1.0,3.0,68,-99.99,,,-99.99,,2013-01-01 09:02:00,
2013-01-01 04:12:00,65.0,55.0,30.18,South,189,1.0,6.0,70,-99.99,,,-99.99,,2013-01-01 09:12:00,
2013-01-01 04:22:00,65.0,55.0,30.18,South,189,1.0,6.0,70,-99.99,,,-99.99,,2013-01-01 09:22:00,
2013-01-01 04:32:00,64.0,55.0,30.18,SSE,160,2.0,3.0,72,-99.99,,,-99.99,,2013-01-01 09:32:00,
2013-01-01 04:42:00,64.0,55.0,30.17,SSE,154,3.0,5.0,73,-99.99,,,-99.99,,2013-01-01 09:42:00,
2013-01-01 04:52:00,66.0,57.0,30.17,South,170,4.0,5.0,73,-99.99,,,-99.99,,2013-01-01 09:52:00,
2013-01-01 05:02:00,66.0,57.0,30.17,South,170,4.0,5.0,73,-99.99,,,-99.99,,2013-01-01 10:02:00,
2013-01-01 05:12:00,68.0,58.0,30.16,South,169,4.0,8.0,69,-99.99,,,-99.99,,2013-01-01 10:12:00,
2013-01-01 05:22:00,68.0,58.0,30.16,South,169,4.0,8.0,69,-99.99,,,-99.99,,2013-01-01 10:22:00,
2013-01-01 05:33:00,69.0,56.0,30.16,SSE,162,7.0,11.0,63,-99.99,,,-99.99,,2013-01-01 10:33:00,
2013-01-01 05:42:00,69.0,56.0,30.15,SSE,168,6.0,11.0,62,-99.99,,,-99.99,,2013-01-01 10:42:00,
2013-01-01 05:53:00,68.0,56.0,30.15,SSE,162,4.0,7.0,64,-99.99,,,-99.99,,2013-01-01 10:53:00,
2013-01-01 06:02:00,68.0,56.0,30.15,SSE,162,4.0,7.0,64,-99.99,,,-99.99,,2013-01-01 11:02:00,
2013-01-01 06:12:00,68.0,56.0,30.15,SSE,168,4.0,5.0,66,-99.99,,,-99.99,,2013-01-01 11:12:00,
2013-01-01 06:23:00,68.0,56.0,30.15,SSE,168,4.0,5.0,66,-99.99,,,-99.99,,2013-01-01 11:23:00,
2013-01-01 06:33:00,68.0,56.0,30.15,SSE,168,4.0,5.0,66,-99.99,,,-99.99,,2013-01-01 11:33:00,
2013-01-01 06:43:00,70.0,59.0,30.14,SSE,164,7.0,12.0,68,-99.99,,,-99.99,,2013-01-01 11:43:00,
2013-01-01 06:53:00,70.0,59.0,30.14,SSE,159,7.0,12.0,67,-99.99,,,-99.99,,2013-01-01 11:53:00,
2013-01-01 07:03:00,70.0,59.0,30.14,SSE,159,7.0,12.0,67,-99.99,,,-99.99,,2013-01-01 12:03:00,
2013-01-01 07:12:00,70.0,57.0,30.14,SSE,151,6.0,11.0,63,-99.99,,,-99.99,,2013-01-01 12:12:00,
2013-01-01 07:22:00,70.0,57.0,30.14,SSE,151,6.0,11.0,63,-99.99,,,-99.99,,2013-01-01 12:22:00,
2013-01-01 07:33:00,70.0,56.0,30.14,SSE,159,8.0,15.0,59,-99.99,,,-99.99,,2013-01-01 12:33:00,
2013-01-01 07:43:00,70.0,56.0,30.15,SSE,158,8.0,15.0,61,-99.99,,,-99.99,,2013-01-01 12:43:00,
2013-01-01 07:53:00,70.0,57.0,30.15,SSE,159,7.0,13.0,63,-99.99,,,-99.99,,2013-01-01 12:53:00,
2013-01-01 08:03:00,70.0,57.0,30.15,SSE,159,7.0,13.0,63,-99.99,,,-99.99,,2013-01-01 13:03:00,
2013-01-01 08:12:00,69.0,56.0,30.15,SSE,162,9.0,13.0,63,-99.99,,,-99.99,,2013-01-01 13:12:00,
2013-01-01 08:22:00,69.0,56.0,30.15,SSE,162,9.0,13.0,63,-99.99,,,-99.99,,2013-01-01 13:22:00,
2013-01-01 08:33:00,69.0,56.0,30.15,SSE,162,9.0,13.0,63,-99.99,,,-99.99,,2013-01-01 13:33:00,
2013-01-01 08:43:00,69.0,56.0,30.15,SSE,162,9.0,13.0,63,-99.99,,,-99.99,,2013-01-01 13:43:00,
2013-01-01 08:53:00,71.0,57.0,30.15,SSE,163,11.0,16.0,59,-99.99,,,-99.99,,2013-01-01 13:53:00,
2013-01-01 09:03:00,71.0,57.0,30.15,SSE,163,11.0,16.0,59,-99.99,,,-99.99,,2013-01-01 14:03:00,
2013-01-01 09:12:00,72.0,56.0,30.16,SSE,164,12.0,18.0,57,-99.99,,,-99.99,,2013-01-01 14:12:00,
2013-01-01 09:22:00,72.0,56.0,30.16,SSE,164,12.0,18.0,57,-99.99,,,-99.99,,2013-01-01 14:22:00,
2013-01-01 09:32:00,72.0,56.0,30.16,SSE,164,12.0,18.0,57,-99.99,,,-99.99,,2013-01-01 14:32:00,
2013-01-01 09:42:00,72.0,56.0,30.16,SSE,161,11.0,21.0,56,-99.99,,,-99.99,,2013-01-01 14:42:00,
2013-01-01 09:53:00,73.0,56.0,30.16,SSE,165,12.0,21.0,56,-99.99,,,-99.99,,2013-01-01 14:53:00,
2013-01-01 10:03:00,73.0,56.0,30.16,SSE,165,12.0,21.0,56,-99.99,,,-99.99,,2013-01-01 15:03:00,
2013-01-01 10:12:00,74.0,57.0,30.16,South,171,11.0,17.0,56,-99.99,,,-99.99,,2013-01-01 15:12:00,
2013-01-01 10:22:00,74.0,57.0,30.16,South,171,11.0,17.0,56,-99.99,,,-99.99,,2013-01-01 15:22:00,
2013-01-01 10:33:00,73.0,57.0,30.16,SSE,165,12.0,21.0,56,-99.99,,,-99.99,,2013-01-01 15:33:00,
2013-01-01 10:43:00,74.0,58.0,30.16,South,169,12.0,20.0,56,-99.99,,,-99.99,,2013-01-01 15:43:00,
2013-01-01 10:53:00,75.0,58.0,30.16,SSE,168,13.0,23.0,55,-99.99,,,-99.99,,2013-01-01 15:53:00,
2013-01-01 11:02:00,75.0,58.0,30.16,SSE,168,13.0,23.0,55,-99.99,,,-99.99,,2013-01-01 16:02:00,
2013-01-01 11:12:00,74.0,58.0,30.15,SSE,166,14.0,24.0,55,-99.99,,,-99.99,,2013-01-01 16:12:00,
2013-01-01 11:22:00,74.0,58.0,30.15,SSE,166,14.0,24.0,55,-99.99,,,-99.99,,2013-01-01 16:22:00,
2013-01-01 11:33:00,75.0,58.0,30.15,South,169,14.0,21.0,56,-99.99,,,-99.99,,2013-01-01 16:33:00,
2013-01-01 11:43:00,75.0,59.0,30.15,South,170,12.0,24.0,56,-99.99,,,-99.99,,2013-01-01 16:43:00,
2013-01-01 11:53:00,75.0,59.0,30.15,South,169,13.0,21.0,57,-99.99,,,-99.99,,2013-01-01 16:53:00,
2013-01-01 12:02:00,75.0,59.0,30.15,South,169,13.0,21.0,57,-99.99,,,-99.99,,2013-01-01 17:02:00,
2013-01-01 12:12:00,74.0,59.0,30.14,SSE,165,12.0,20.0,58,-99.99,,,-99.99,,2013-01-01 17:12:00,
2013-01-01 12:23:00,74.0,59.0,30.14,SSE,165,12.0,20.0,58,-99.99,,,-99.99,,2013-01-01 17:23:00,
2013-01-01 12:33:00,74.0,59.0,30.14,SSE,165,12.0,20.0,58,-99.99,,,-99.99,,2013-01-01 17:33:00,
2013-01-01 12:43:00,75.0,59.0,30.12,South,169,13.0,22.0,56,-99.99,,,-99.99,,2013-01-01 17:43:00,
2013-01-01 12:53:00,75.0,58.0,30.11,South,170,16.0,26.0,56,-99.99,,,-99.99,,2013-01-01 17:53:00,
2013-01-01 13:03:00,75.0,58.0,30.11,South,170,16.0,26.0,56,-99.99,,,-99.99,,2013-01-01 18:03:00,
2013-01-01 13:13:00,75.0,59.0,30.10,South,171,13.0,26.0,58,-99.99,,,-99.99,,2013-01-01 18:13:00,
2013-01-01 13:23:00,75.0,59.0,30.10,South,171,13.0,26.0,58,-99.99,,,-99.99,,2013-01-01 18:23:00,
2013-01-01 13:33:00,75.0,59.0,30.10,South,171,13.0,26.0,58,-99.99,,,-99.99,,2013-01-01 18:33:00,
2013-01-01 13:43:00,75.0,59.0,30.09,South,171,12.0,21.0,57,-99.99,,,-99.99,,2013-01-01 18:43:00,
2013-01-01 13:53:00,75.0,59.0,30.08,South,174,12.0,20.0,57,-99.99,,,-99.99,,2013-01-01 18:53:00,
2013-01-01 14:02:00,75.0,59.0,30.08,South,174,12.0,20.0,57,-99.99,,,-99.99,,2013-01-01 19:02:00,
2013-01-01 14:12:00,76.0,60.0,30.08,South,176,10.0,19.0,57,-99.99,,,-99.99,,2013-01-01 19:12:00,
2013-01-01 14:22:00,76.0,60.0,30.08,South,176,10.0,19.0,57,-99.99,,,-99.99,,2013-01-01 19:22:00,
2013-01-01 14:33:00,75.0,59.0,30.08,South,182,10.0,16.0,57,-99.99,,,-99.99,,2013-01-01 19:33:00,
2013-01-01 14:43:00,74.0,59.0,30.07,SSE,168,11.0,20.0,58,-99.99,,,-99.99,,2013-01-01 19:43:00,
2013-01-01 14:53:00,75.0,59.0,30.07,South,174,11.0,17.0,57,-99.99,,,-99.99,,2013-01-01 19:53:00,
2013-01-01 15:02:00,75.0,59.0,30.07,South,174,11.0,17.0,57,-99.99,,,-99.99,,2013-01-01 20:02:00,
2013-01-01 15:13:00,75.0,59.0,30.07,South,174,11.0,17.0,57,-99.99,,,-99.99,,2013-01-01 20:13:00,
2013-01-01 15:23:00,75.0,59.0,30.07,South,171,11.0,18.0,58,-99.99,,,-99.99,,2013-01-01 20:23:00,
2013-01-01 15:32:00,75.0,60.0,30.07,South,174,10.0,19.0,59,-99.99,,,-99.99,,2013-01-01 20:32:00,
2013-01-01 15:42:00,75.0,59.0,30.07,South,172,11.0,19.0,58,-99.99,,,-99.99,,2013-01-01 20:42:00,
2013-01-01 15:53:00,75.0,59.0,30.07,South,176,10.0,17.0,57,-99.99,,,-99.99,,2013-01-01 20:53:00,
2013-01-01 16:03:00,75.0,59.0,30.07,South,176,10.0,17.0,57,-99.99,,,-99.99,,2013-01-01 21:03:00,
2013-01-01 16:13:00,75.0,59.0,30.06,South,169,12.0,21.0,57,-99.99,,,-99.99,,2013-01-01 21:13:00,
2013-01-01 16:22:00,75.0,59.0,30.06,South,169,12.0,21.0,57,-99.99,,,-99.99,,2013-01-01 21:22:00,
2013-01-01 16:33:00,75.0,59.0,30.06,South,170,10.0,17.0,57,-99.99,,,-99.99,,2013-01-01 21:33:00,
2013-01-01 16:42:00,75.0,59.0,30.06,South,173,8.0,15.0,58,-99.99,,,-99.99,,2013-01-01 21:42:00,
2013-01-01 16:53:00,74.0,60.0,30.06,South,171,9.0,16.0,59,-99.99,,,-99.99,,2013-01-01 21:53:00,
2013-01-01 17:03:00,74.0,60.0,30.06,South,171,9.0,16.0,59,-99.99,,,-99.99,,2013-01-01 22:03:00,
2013-01-01 17:12:00,74.0,60.0,30.06,SSE,168,9.0,15.0,60,-99.99,,,-99.99,,2013-01-01 22:12:00,
2013-01-01 17:22:00,74.0,60.0,30.06,SSE,168,9.0,15.0,60,-99.99,,,-99.99,,2013-01-01 22:22:00,
2013-01-01 17:33:00,73.0,59.0,30.06,South,172,8.0,14.0,60,-99.99,,,-99.99,,2013-01-01 22:33:00,
2013-01-01 17:43:00,73.0,60.0,30.06,SSE,168,9.0,15.0,61,-99.99,,,-99.99,,2013-01-01 22:43:00,
2013-01-01 17:53:00,73.0,60.0,30.06,South,172,8.0,13.0,62,-99.99,,,-99.99,,2013-01-01 22:53:00,
2013-01-01 18:03:00,73.0,60.0,30.06,South,172,8.0,13.0,62,-99.99,,,-99.99,,2013-01-01 23:03:00,
2013-01-01 18:12:00,73.0,60.0,30.06,South,174,6.0,10.0,62,-99.99,,,-99.99,,2013-01-01 23:12:00,
2013-01-01 18:22:00,73.0,60.0,30.06,South,174,6.0,10.0,62,-99.99,,,-99.99,,2013-01-01 23:22:00,
2013-01-01 18:32:00,73.0,60.0,30.06,South,174,6.0,10.0,62,-99.99,,,-99.99,,2013-01-01 23:32:00,
2013-01-01 18:42:00,73.0,60.0,30.07,SSE,168,5.0,8.0,63,-99.99,,,-99.99,,2013-01-01 23:42:00,
2013-01-01 18:53:00,73.0,60.0,30.07,SSE,168,5.0,8.0,63,-99.99,,,-99.99,,2013-01-01 23:53:00,
2013-01-01 19:03:00,73.0,60.0,30.07,SSE,168,5.0,8.0,63,-99.99,,,-99.99,,2013-01-02 00:03:00,
2013-01-01 19:12:00,73.0,60.0,30.07,SSE,168,5.0,8.0,63,-99.99,,,-99.99,,2013-01-02 00:12:00,
2013-01-01 19:33:00,73.0,60.0,30.07,South,173,4.0,8.0,63,-99.99,,,-99.99,,2013-01-02 00:33:00,
2013-01-01 19:43:00,73.0,59.0,30.07,South,189,1.0,5.0,62,-99.99,,,-99.99,,2013-01-02 00:43:00,
2013-01-01 19:53:00,72.0,58.0,30.08,South,177,1.0,1.0,61,-99.99,,,-99.99,,2013-01-02 00:53:00,
2013-01-01 20:02:00,72.0,58.0,30.08,South,177,1.0,1.0,61,-99.99,,,-99.99,,2013-01-02 01:02:00,
2013-01-01 20:12:00,72.0,59.0,30.08,SE,145,0.0,2.0,62,-99.99,,,-99.99,,2013-01-02 01:12:00,
2013-01-01 20:22:00,72.0,59.0,30.08,SE,145,0.0,2.0,62,-99.99,,,-99.99,,2013-01-02 01:22:00,
2013-01-01 20:32:00,72.0,59.0,30.07,SSE,161,1.0,2.0,63,-99.99,,,-99.99,,2013-01-02 01:32:00,
2013-01-01 20:42:00,72.0,59.0,30.07,SSE,161,1.0,2.0,63,-99.99,,,-99.99,,2013-01-02 01:42:00,
2013-01-01 20:53:00,71.0,59.0,30.08,SSE,165,2.0,3.0,66,-99.99,,,-99.99,,2013-01-02 01:53:00,
2013-01-01 21:02:00,71.0,59.0,30.08,SSE,165,2.0,3.0,66,-99.99,,,-99.99,,2013-01-02 02:02:00,
2013-01-01 21:12:00,71.0,59.0,30.08,South,171,1.0,2.0,66,-99.99,,,-99.99,,2013-01-02 02:12:00,
2013-01-01 21:22:00,71.0,59.0,30.08,South,171,1.0,2.0,66,-99.99,,,-99.99,,2013-01-02 02:22:00,
2013-01-01 21:32:00,71.0,59.0,30.08,South,171,1.0,2.0,66,-99.99,,,-99.99,,2013-01-02 02:32:00,
2013-01-01 21:42:00,69.0,59.0,30.08,SSE,152,0.0,2.0,70,-99.99,,,-99.99,,2013-01-02 02:42:00,
2013-01-01 21:53:00,68.0,59.0,30.09,WSW,247,2.0,3.0,72,-99.99,,,-99.99,,2013-01-02 02:53:00,
2013-01-01 22:02:00,68.0,59.0,30.09,WSW,247,2.0,3.0,72,-99.99,,,-99.99,,2013-01-02 03:02:00,
2013-01-01 22:12:00,68.0,59.0,30.09,SW,218,1.0,3.0,73,-99.99,,,-99.99,,2013-01-02 03:12:00,
2013-01-01 22:22:00,68.0,59.0,30.09,SW,218,1.0,3.0,73,-99.99,,,-99.99,,2013-01-02 03:22:00,
2013-01-01 22:32:00,67.0,59.0,30.09,SE,124,1.0,1.0,75,-99.99,,,-99.99,,2013-01-02 03:32:00,
2013-01-01 22:42:00,67.0,59.0,30.09,SE,137,1.0,1.0,77,-99.99,,,-99.99,,2013-01-02 03:42:00,
2013-01-01 22:53:00,67.0,60.0,30.09,South,169,1.0,3.0,76,-99.99,,,-99.99,,2013-01-02 03:53:00,
2013-01-01 23:03:00,67.0,60.0,30.09,South,169,1.0,3.0,76,-99.99,,,-99.99,,2013-01-02 04:03:00,
2013-01-01 23:12:00,66.0,59.0,30.08,SSE,147,2.0,3.0,78,-99.99,,,-99.99,,2013-01-02 04:12:00,
2013-01-01 23:22:00,66.0,59.0,30.08,SSE,147,2.0,3.0,78,-99.99,,,-99.99,,2013-01-02 04:22:00,
2013-01-01 23:32:00,65.0,59.0,30.08,SE,130,2.0,3.0,80,-99.99,,,-99.99,,2013-01-02 04:32:00,
2013-01-01 23:42:00,65.0,59.0,30.07,SE,143,2.0,5.0,81,-99.99,,,-99.99,,2013-01-02 04:42:00,
2013-01-01 23:53:00,65.0,59.0,30.07,South,171,3.0,5.0,81,-99.99,,,-99.99,,2013-01-02 04:53:00,